Time,TemperatureF,DewpointF,PressureIn,WindDirection,WindDirectionDegrees,WindSpeedMPH,WindSpeedGustMPH,Humidity,HourlyPrecipIn,Conditions,Clouds,dailyrainin,SolarRadiationWatts/m^2,SoftwareType,DateUTC
2013-04-26 00:04:00,59.3,53.4,30.13,WNW,290,0.0,0.0,81,0.00,,,0.00,0,HR-IXP-WINDi_r2_v1.2,2013-04-26 07:04:00,
2013-04-26 00:09:00,59.2,53.6,30.14,WNW,290,1.0,1.0,82,0.00,,,0.00,0,HR-IXP-WINDi_r2_v1.2,2013-04-26 07:09:00,
2013-04-26 00:14:00,59.4,53.5,30.14,WNW,290,1.0,3.0,81,0.00,,,0.00,0,HR-IXP-WINDi_r2_v1.2,2013-04-26 07:14:00,
2013-04-26 00:19:00,59.5,53.3,30.14,WNW,290,0.0,3.0,80,0.00,,,0.00,0,HR-IXP-WINDi_r2_v1.2,2013-04-26 07:19:00,
2013-04-26 00:25:00,59.4,53.2,30.14,WNW,290,0.0,2.0,80,0.00,,,0.00,0,HR-IXP-WINDi_r2_v1.2,2013-04-26 07:25:00,
2013-04-26 00:30:00,59.4,53.2,30.14,WNW,290,0.0,3.0,80,0.00,,,0.00,0,HR-IXP-WINDi_r2_v1.2,2013-04-26 07:30:00,
2013-04-26 00:35:00,59.4,53.2,30.14,WNW,290,0.0,3.0,80,0.00,,,0.00,0,HR-IXP-WINDi_r2_v1.2,2013-04-26 07:35:00,
2013-04-26 00:40:00,59.2,53.0,30.14,WNW,290,1.0,3.0,80,0.00,,,0.00,0,HR-IXP-WINDi_r2_v1.2,2013-04-26 07:40:00,
2013-04-26 00:45:00,59.1,52.9,30.14,WNW,290,0.0,3.0,80,0.00,,,0.00,0,HR-IXP-WINDi_r2_v1.2,2013-04-26 07:45:00,
2013-04-26 00:50:00,59.0,52.8,30.14,WNW,290,0.0,2.0,80,0.00,,,0.00,0,HR-IXP-WINDi_r2_v1.2,2013-04-26 07:50:00,
2013-04-26 00:56:00,58.9,52.7,30.14,WNW,290,0.0,1.0,80,0.00,,,0.00,0,HR-IXP-WINDi_r2_v1.2,2013-04-26 07:56:00,
2013-04-26 01:01:00,58.8,52.9,30.14,WNW,290,0.0,2.0,81,0.00,,,0.00,0,HR-IXP-WINDi_r2_v1.2,2013-04-26 08:01:00,
2013-04-26 01:06:00,58.7,52.8,30.14,WNW,290,0.0,2.0,81,0.00,,,0.00,0,HR-IXP-WINDi_r2_v1.2,2013-04-26 08:06:00,
2013-04-26 01:11:00,58.4,52.5,30.14,WNW,290,0.0,1.0,81,0.00,,,0.00,0,HR-IXP-WINDi_r2_v1.2,2013-04-26 08:11:00,
2013-04-26 01:16:00,58.3,52.4,30.14,WNW,290,0.0,1.0,81,0.00,,,0.00,0,HR-IXP-WINDi_r2_v1.2,2013-04-26 08:16:00,
2013-04-26 01:21:00,58.2,52.3,30.14,WNW,290,0.0,1.0,81,0.00,,,0.00,0,HR-IXP-WINDi_r2_v1.2,2013-04-26 08:21:00,
2013-04-26 01:27:00,58.1,52.2,30.14,WNW,290,0.0,1.0,81,0.00,,,0.00,0,HR-IXP-WINDi_r2_v1.2,2013-04-26 08:27:00,
2013-04-26 01:32:00,58.0,52.5,30.14,WNW,290,0.0,0.0,82,0.00,,,0.00,0,HR-IXP-WINDi_r2_v1.2,2013-04-26 08:32:00,
2013-04-26 01:37:00,58.0,52.5,30.14,WNW,290,0.0,0.0,82,0.00,,,0.00,0,HR-IXP-WINDi_r2_v1.2,2013-04-26 08:37:00,
2013-04-26 01:42:00,57.9,52.4,30.14,WNW,290,0.0,0.0,82,0.00,,,0.00,0,HR-IXP-WINDi_r2_v1.2,2013-04-26 08:42:00,
2013-04-26 01:47:00,58.0,52.5,30.14,WNW,290,0.0,1.0,82,0.00,,,0.00,0,HR-IXP-WINDi_r2_v1.2,2013-04-26 08:47:00,
2013-04-26 01:53:00,58.0,52.1,30.14,WNW,290,0.0,1.0,81,0.00,,,0.00,0,HR-IXP-WINDi_r2_v1.2,2013-04-26 08:53:00,
2013-04-26 01:58:00,57.9,52.0,30.14,WNW,290,0.0,0.0,81,0.00,,,0.00,0,HR-IXP-WINDi_r2_v1.2,2013-04-26 08:58:00,
2013-04-26 02:03:00,57.9,52.4,30.14,WNW,290,0.0,0.0,82,0.00,,,0.00,0,HR-IXP-WINDi_r2_v1.2,2013-04-26 09:03:00,
2013-04-26 02:08:00,57.6,51.7,30.14,WNW,290,0.0,0.0,81,0.00,,,0.00,0,HR-IXP-WINDi_r2_v1.2,2013-04-26 09:08:00,
2013-04-26 02:13:00,57.3,51.8,30.14,WNW,290,0.0,0.0,82,0.00,,,0.00,0,HR-IXP-WINDi_r2_v1.2,2013-04-26 09:13:00,
2013-04-26 02:18:00,57.2,51.7,30.14,WNW,290,0.0,0.0,82,0.00,,,0.00,0,HR-IXP-WINDi_r2_v1.2,2013-04-26 09:18:00,
2013-04-26 02:24:00,57.0,51.5,30.14,WNW,290,0.0,0.0,82,0.00,,,0.00,0,HR-IXP-WINDi_r2_v1.2,2013-04-26 09:24:00,
2013-04-26 02:29:00,57.1,51.9,30.14,WNW,290,0.0,0.0,83,0.00,,,0.00,0,HR-IXP-WINDi_r2_v1.2,2013-04-26 09:29:00,
2013-04-26 02:34:00,56.9,51.4,30.14,WNW,290,0.0,0.0,82,0.00,,,0.00,0,HR-IXP-WINDi_r2_v1.2,2013-04-26 09:34:00,
2013-04-26 02:39:00,56.9,51.7,30.14,WNW,290,0.0,0.0,83,0.00,,,0.00,0,HR-IXP-WINDi_r2_v1.2,2013-04-26 09:39:00,
2013-04-26 02:45:00,56.7,51.5,30.14,WNW,290,0.0,0.0,83,0.00,,,0.00,0,HR-IXP-WINDi_r2_v1.2,2013-04-26 09:45:00,
2013-04-26 02:50:00,56.5,51.3,30.14,WNW,290,0.0,0.0,83,0.00,,,0.00,0,HR-IXP-WINDi_r2_v1.2,2013-04-26 09:50:00,
2013-04-26 02:55:00,56.4,51.2,30.14,WNW,290,0.0,0.0,83,0.00,,,0.00,0,HR-IXP-WINDi_r2_v1.2,2013-04-26 09:55:00,
2013-04-26 03:00:00,56.3,51.5,30.14,WNW,290,0.0,0.0,84,0.00,,,0.00,0,HR-IXP-WINDi_r2_v1.2,2013-04-26 10:00:00,
2013-04-26 03:05:00,56.3,51.5,30.14,WNW,290,0.0,0.0,84,0.00,,,0.00,0,HR-IXP-WINDi_r2_v1.2,2013-04-26 10:05:00,
2013-04-26 03:11:00,56.2,51.4,30.14,WNW,290,0.0,0.0,84,0.00,,,0.00,0,HR-IXP-WINDi_r2_v1.2,2013-04-26 10:11:00,
2013-04-26 03:16:00,56.1,51.3,30.14,WNW,290,0.0,0.0,84,0.00,,,0.00,0,HR-IXP-WINDi_r2_v1.2,2013-04-26 10:16:00,
2013-04-26 03:21:00,55.9,51.4,30.14,WNW,290,0.0,0.0,85,0.00,,,0.00,0,HR-IXP-WINDi_r2_v1.2,2013-04-26 10:21:00,
2013-04-26 03:26:00,55.7,51.2,30.14,WNW,290,0.0,0.0,85,0.00,,,0.00,0,HR-IXP-WINDi_r2_v1.2,2013-04-26 10:26:00,
2013-04-26 03:31:00,55.6,51.1,30.14,WNW,290,0.0,0.0,85,0.00,,,0.00,0,HR-IXP-WINDi_r2_v1.2,2013-04-26 10:31:00,
2013-04-26 03:37:00,55.2,50.7,30.14,WNW,290,0.0,0.0,85,0.00,,,0.00,0,HR-IXP-WINDi_r2_v1.2,2013-04-26 10:37:00,
2013-04-26 03:42:00,55.4,50.9,30.13,WNW,290,0.0,0.0,85,0.00,,,0.00,0,HR-IXP-WINDi_r2_v1.2,2013-04-26 10:42:00,
2013-04-26 03:47:00,55.3,50.8,30.14,WNW,290,0.0,0.0,85,0.00,,,0.00,0,HR-IXP-WINDi_r2_v1.2,2013-04-26 10:47:00,
2013-04-26 03:53:00,55.0,50.5,30.14,WNW,290,0.0,0.0,85,0.00,,,0.00,0,HR-IXP-WINDi_r2_v1.2,2013-04-26 10:53:00,
2013-04-26 03:58:00,54.8,50.3,30.14,WNW,290,0.0,0.0,85,0.00,,,0.00,0,HR-IXP-WINDi_r2_v1.2,2013-04-26 10:58:00,
2013-04-26 04:03:00,55.0,50.8,30.14,WNW,290,0.0,0.0,86,0.00,,,0.00,0,HR-IXP-WINDi_r2_v1.2,2013-04-26 11:03:00,
2013-04-26 04:08:00,54.9,50.4,30.14,WNW,290,0.0,0.0,85,0.00,,,0.00,0,HR-IXP-WINDi_r2_v1.2,2013-04-26 11:08:00,
2013-04-26 04:13:00,54.9,50.7,30.14,WNW,290,0.0,0.0,86,0.00,,,0.00,0,HR-IXP-WINDi_r2_v1.2,2013-04-26 11:13:00,
2013-04-26 04:19:00,54.6,50.4,30.14,WNW,290,0.0,0.0,86,0.00,,,0.00,0,HR-IXP-WINDi_r2_v1.2,2013-04-26 11:19:00,
2013-04-26 04:24:00,54.4,50.2,30.14,WNW,290,0.0,0.0,86,0.00,,,0.00,0,HR-IXP-WINDi_r2_v1.2,2013-04-26 11:24:00,
2013-04-26 04:29:00,54.4,50.2,30.14,WNW,290,0.0,0.0,86,0.00,,,0.00,0,HR-IXP-WINDi_r2_v1.2,2013-04-26 11:29:00,
2013-04-26 04:35:00,54.6,50.4,30.14,WNW,290,0.0,0.0,86,0.00,,,0.00,0,HR-IXP-WINDi_r2_v1.2,2013-04-26 11:35:00,
2013-04-26 04:40:00,54.5,50.3,30.14,WNW,290,0.0,0.0,86,0.00,,,0.00,0,HR-IXP-WINDi_r2_v1.2,2013-04-26 11:40:00,
2013-04-26 04:45:00,54.2,50.0,30.14,WNW,290,0.0,0.0,86,0.00,,,0.00,0,HR-IXP-WINDi_r2_v1.2,2013-04-26 11:45:00,
2013-04-26 04:50:00,53.9,49.7,30.13,WNW,290,0.0,1.0,86,0.00,,,0.00,0,HR-IXP-WINDi_r2_v1.2,2013-04-26 11:50:00,
2013-04-26 04:55:00,54.0,50.2,30.13,WNW,290,0.0,1.0,87,0.00,,,0.00,0,HR-IXP-WINDi_r2_v1.2,2013-04-26 11:55:00,
2013-04-26 05:01:00,54.0,50.2,30.13,WNW,290,0.0,1.0,87,0.00,,,0.00,0,HR-IXP-WINDi_r2_v1.2,2013-04-26 12:01:00,
2013-04-26 05:06:00,53.9,50.1,30.13,WNW,290,0.0,1.0,87,0.00,,,0.00,0,HR-IXP-WINDi_r2_v1.2,2013-04-26 12:06:00,
2013-04-26 05:11:00,53.8,50.0,30.13,WNW,290,0.0,1.0,87,0.00,,,0.00,0,HR-IXP-WINDi_r2_v1.2,2013-04-26 12:11:00,
2013-04-26 05:16:00,54.0,50.2,30.13,WNW,290,0.0,0.0,87,0.00,,,0.00,0,HR-IXP-WINDi_r2_v1.2,2013-04-26 12:16:00,
2013-04-26 05:22:00,54.1,50.6,30.13,WNW,290,0.0,0.0,88,0.00,,,0.00,0,HR-IXP-WINDi_r2_v1.2,2013-04-26 12:22:00,
2013-04-26 05:27:00,53.9,50.4,30.13,WNW,290,0.0,0.0,88,0.00,,,0.00,0,HR-IXP-WINDi_r2_v1.2,2013-04-26 12:27:00,
2013-04-26 05:32:00,53.9,50.4,30.13,WNW,290,0.0,0.0,88,0.00,,,0.00,0,HR-IXP-WINDi_r2_v1.2,2013-04-26 12:32:00,
2013-04-26 05:37:00,53.7,50.2,30.13,WNW,290,0.0,0.0,88,0.00,,,0.00,0,HR-IXP-WINDi_r2_v1.2,2013-04-26 12:37:00,
2013-04-26 05:42:00,53.7,50.2,30.13,WNW,290,0.0,0.0,88,0.00,,,0.00,0,HR-IXP-WINDi_r2_v1.2,2013-04-26 12:42:00,
2013-04-26 05:48:00,53.7,50.2,30.13,WNW,290,0.0,0.0,88,0.00,,,0.00,0,HR-IXP-WINDi_r2_v1.2,2013-04-26 12:48:00,
2013-04-26 05:53:00,53.7,50.2,30.13,WNW,290,0.0,0.0,88,0.00,,,0.00,0,HR-IXP-WINDi_r2_v1.2,2013-04-26 12:53:00,
2013-04-26 05:58:00,53.5,50.0,30.14,WNW,290,0.0,0.0,88,0.00,,,0.00,0,HR-IXP-WINDi_r2_v1.2,2013-04-26 12:58:00,
2013-04-26 06:03:00,53.5,50.0,30.14,WNW,290,0.0,0.0,88,0.00,,,0.00,0,HR-IXP-WINDi_r2_v1.2,2013-04-26 13:03:00,
2013-04-26 06:09:00,53.3,49.8,30.14,WNW,290,0.0,0.0,88,0.00,,,0.00,0,HR-IXP-WINDi_r2_v1.2,2013-04-26 13:09:00,
2013-04-26 06:14:00,53.4,49.9,30.14,WNW,290,0.0,0.0,88,0.00,,,0.00,7,HR-IXP-WINDi_r2_v1.2,2013-04-26 13:14:00,
2013-04-26 06:19:00,53.1,49.9,30.14,WNW,290,0.0,0.0,89,0.00,,,0.00,11,HR-IXP-WINDi_r2_v1.2,2013-04-26 13:19:00,
2013-04-26 06:24:00,53.1,49.9,30.15,WNW,290,0.0,0.0,89,0.00,,,0.00,16,HR-IXP-WINDi_r2_v1.2,2013-04-26 13:24:00,
2013-04-26 06:29:00,53.2,50.0,30.15,WNW,290,0.0,0.0,89,0.00,,,0.00,23,HR-IXP-WINDi_r2_v1.2,2013-04-26 13:29:00,
2013-04-26 06:35:00,53.3,50.1,30.15,WNW,290,0.0,0.0,89,0.00,,,0.00,30,HR-IXP-WINDi_r2_v1.2,2013-04-26 13:35:00,
2013-04-26 06:40:00,53.6,50.4,30.15,WNW,290,0.0,0.0,89,0.00,,,0.00,39,HR-IXP-WINDi_r2_v1.2,2013-04-26 13:40:00,
2013-04-26 06:45:00,53.9,50.7,30.15,WNW,290,0.0,0.0,89,0.00,,,0.00,47,HR-IXP-WINDi_r2_v1.2,2013-04-26 13:45:00,
2013-04-26 06:50:00,54.1,50.6,30.15,WNW,290,0.0,1.0,88,0.00,,,0.00,58,HR-IXP-WINDi_r2_v1.2,2013-04-26 13:50:00,
2013-04-26 06:55:00,54.5,51.0,30.15,WNW,290,0.0,1.0,88,0.00,,,0.00,67,HR-IXP-WINDi_r2_v1.2,2013-04-26 13:55:00,
2013-04-26 07:00:00,55.0,51.4,30.16,WNW,290,0.0,1.0,88,0.00,,,0.00,76,HR-IXP-WINDi_r2_v1.2,2013-04-26 14:00:00,
2013-04-26 07:06:00,55.2,51.3,30.16,WNW,290,0.0,1.0,87,0.00,,,0.00,88,HR-IXP-WINDi_r2_v1.2,2013-04-26 14:06:00,
2013-04-26 07:11:00,55.7,51.8,30.16,WNW,290,1.0,1.0,87,0.00,,,0.00,105,HR-IXP-WINDi_r2_v1.2,2013-04-26 14:11:00,
2013-04-26 07:16:00,56.2,52.3,30.16,WNW,290,0.0,1.0,87,0.00,,,0.00,127,HR-IXP-WINDi_r2_v1.2,2013-04-26 14:16:00,
2013-04-26 07:21:00,56.9,52.7,30.16,WNW,290,0.0,1.0,86,0.00,,,0.00,146,HR-IXP-WINDi_r2_v1.2,2013-04-26 14:21:00,
2013-04-26 07:26:00,57.1,52.6,30.16,WNW,290,0.0,1.0,85,0.00,,,0.00,165,HR-IXP-WINDi_r2_v1.2,2013-04-26 14:26:00,
2013-04-26 07:31:00,57.4,52.9,30.17,WNW,290,0.0,1.0,85,0.00,,,0.00,179,HR-IXP-WINDi_r2_v1.2,2013-04-26 14:31:00,
2013-04-26 07:36:00,58.0,53.1,30.17,WNW,290,0.0,1.0,84,0.00,,,0.00,178,HR-IXP-WINDi_r2_v1.2,2013-04-26 14:36:00,
2013-04-26 07:41:00,58.2,53.0,30.17,WNW,290,0.0,1.0,83,0.00,,,0.00,181,HR-IXP-WINDi_r2_v1.2,2013-04-26 14:41:00,
2013-04-26 07:46:00,58.4,52.9,30.17,WNW,290,0.0,1.0,82,0.00,,,0.00,204,HR-IXP-WINDi_r2_v1.2,2013-04-26 14:46:00,
2013-04-26 07:52:00,59.1,53.5,30.17,WNW,290,1.0,2.0,82,0.00,,,0.00,241,HR-IXP-WINDi_r2_v1.2,2013-04-26 14:52:00,
2013-04-26 07:57:00,59.3,53.4,30.17,WNW,290,2.0,2.0,81,0.00,,,0.00,265,HR-IXP-WINDi_r2_v1.2,2013-04-26 14:57:00,
2013-04-26 08:02:00,60.0,54.1,30.17,WNW,290,0.0,2.0,81,0.00,,,0.00,283,HR-IXP-WINDi_r2_v1.2,2013-04-26 15:02:00,
2013-04-26 08:07:00,60.2,53.9,30.17,WNW,290,0.0,2.0,80,0.00,,,0.00,299,HR-IXP-WINDi_r2_v1.2,2013-04-26 15:07:00,
2013-04-26 08:12:00,60.7,54.8,30.17,WNW,290,1.0,2.0,81,0.00,,,0.00,315,HR-IXP-WINDi_r2_v1.2,2013-04-26 15:12:00,
2013-04-26 08:18:00,61.1,54.1,30.17,WNW,296,1.0,3.0,78,0.00,,,0.00,332,HR-IXP-WINDi_r2_v1.2,2013-04-26 15:18:00,
2013-04-26 08:23:00,62.7,55.7,30.17,NW,317,1.0,3.0,78,0.00,,,0.00,350,HR-IXP-WINDi_r2_v1.2,2013-04-26 15:23:00,
2013-04-26 08:28:00,62.3,54.9,30.17,NW,317,1.0,3.0,77,0.00,,,0.00,369,HR-IXP-WINDi_r2_v1.2,2013-04-26 15:28:00,
2013-04-26 08:34:00,62.6,54.5,30.17,NW,317,1.0,3.0,75,0.00,,,0.00,387,HR-IXP-WINDi_r2_v1.2,2013-04-26 15:34:00,
2013-04-26 08:39:00,63.8,54.5,30.17,NNW,340,3.0,3.0,72,0.00,,,0.00,403,HR-IXP-WINDi_r2_v1.2,2013-04-26 15:39:00,
2013-04-26 08:44:00,63.1,54.6,30.17,NNW,340,0.0,3.0,74,0.00,,,0.00,418,HR-IXP-WINDi_r2_v1.2,2013-04-26 15:44:00,
2013-04-26 08:49:00,62.9,54.1,30.17,NNW,340,1.0,3.0,73,0.00,,,0.00,436,HR-IXP-WINDi_r2_v1.2,2013-04-26 15:49:00,
2013-04-26 08:54:00,62.7,53.9,30.17,WSW,257,1.0,3.0,73,0.00,,,0.00,452,HR-IXP-WINDi_r2_v1.2,2013-04-26 15:54:00,
2013-04-26 09:00:00,63.4,54.9,30.17,WSW,250,1.0,3.0,74,0.00,,,0.00,469,HR-IXP-WINDi_r2_v1.2,2013-04-26 16:00:00,
2013-04-26 09:05:00,63.3,54.4,30.17,WSW,249,1.0,3.0,73,0.00,,,0.00,489,HR-IXP-WINDi_r2_v1.2,2013-04-26 16:05:00,
2013-04-26 09:10:00,64.9,55.2,30.17,WSW,249,1.0,2.0,71,0.00,,,0.00,499,HR-IXP-WINDi_r2_v1.2,2013-04-26 16:10:00,
2013-04-26 09:15:00,64.1,54.4,30.17,WSW,252,0.0,3.0,71,0.00,,,0.00,512,HR-IXP-WINDi_r2_v1.2,2013-04-26 16:15:00,
2013-04-26 09:20:00,64.1,54.4,30.17,West,273,2.0,3.0,71,0.00,,,0.00,531,HR-IXP-WINDi_r2_v1.2,2013-04-26 16:20:00,
2013-04-26 09:25:00,64.3,54.2,30.17,WNW,296,1.0,4.0,70,0.00,,,0.00,545,HR-IXP-WINDi_r2_v1.2,2013-04-26 16:25:00,
2013-04-26 09:31:00,65.4,55.3,30.17,WNW,296,0.0,4.0,70,0.00,,,0.00,559,HR-IXP-WINDi_r2_v1.2,2013-04-26 16:31:00,
2013-04-26 09:36:00,67.2,55.0,30.17,NNW,339,1.0,4.0,65,0.00,,,0.00,575,HR-IXP-WINDi_r2_v1.2,2013-04-26 16:36:00,
2013-04-26 09:41:00,66.1,54.8,30.17,NNW,340,2.0,4.0,67,0.00,,,0.00,591,HR-IXP-WINDi_r2_v1.2,2013-04-26 16:41:00,
2013-04-26 09:46:00,65.4,53.3,30.17,NNE,19,1.0,4.0,65,0.00,,,0.00,606,HR-IXP-WINDi_r2_v1.2,2013-04-26 16:46:00,
2013-04-26 09:51:00,68.6,55.4,30.17,ESE,123,2.0,4.0,63,0.00,,,0.00,621,HR-IXP-WINDi_r2_v1.2,2013-04-26 16:51:00,
2013-04-26 09:56:00,70.4,56.3,30.17,ESE,121,0.0,3.0,61,0.00,,,0.00,635,HR-IXP-WINDi_r2_v1.2,2013-04-26 16:56:00,
2013-04-26 10:01:00,70.2,56.1,30.17,WSW,255,3.0,4.0,61,0.00,,,0.00,647,HR-IXP-WINDi_r2_v1.2,2013-04-26 17:01:00,
2013-04-26 10:07:00,67.4,54.3,30.17,NW,307,1.0,4.0,63,0.00,,,0.00,656,HR-IXP-WINDi_r2_v1.2,2013-04-26 17:07:00,
2013-04-26 10:12:00,67.9,54.3,30.17,SSE,163,3.0,5.0,62,0.00,,,0.00,671,HR-IXP-WINDi_r2_v1.2,2013-04-26 17:12:00,
2013-04-26 10:17:00,68.8,54.3,30.17,SSW,196,0.0,5.0,60,0.00,,,0.00,687,HR-IXP-WINDi_r2_v1.2,2013-04-26 17:17:00,
2013-04-26 10:22:00,68.9,54.4,30.17,WSW,241,1.0,4.0,60,0.00,,,0.00,701,HR-IXP-WINDi_r2_v1.2,2013-04-26 17:22:00,
2013-04-26 10:27:00,68.8,53.8,30.17,NW,321,3.0,4.0,59,0.00,,,0.00,705,HR-IXP-WINDi_r2_v1.2,2013-04-26 17:27:00,
2013-04-26 10:32:00,68.7,54.2,30.17,SSW,212,3.0,5.0,60,0.00,,,0.00,719,HR-IXP-WINDi_r2_v1.2,2013-04-26 17:32:00,
2013-04-26 10:37:00,70.4,55.8,30.17,SSE,147,3.0,6.0,60,0.00,,,0.00,728,HR-IXP-WINDi_r2_v1.2,2013-04-26 17:37:00,
2013-04-26 10:43:00,70.0,54.0,30.17,SW,236,5.0,6.0,57,0.00,,,0.00,735,HR-IXP-WINDi_r2_v1.2,2013-04-26 17:43:00,
2013-04-26 10:48:00,70.1,55.1,30.17,West,270,2.0,5.0,59,0.00,,,0.00,745,HR-IXP-WINDi_r2_v1.2,2013-04-26 17:48:00,
2013-04-26 10:53:00,70.0,55.0,30.17,SSW,211,4.0,5.0,59,0.00,,,0.00,759,HR-IXP-WINDi_r2_v1.2,2013-04-26 17:53:00,
2013-04-26 10:58:00,69.6,54.1,30.17,WSW,257,1.0,5.0,58,0.00,,,0.00,770,HR-IXP-WINDi_r2_v1.2,2013-04-26 17:58:00,
2013-04-26 11:04:00,71.4,55.8,30.16,WSW,257,2.0,5.0,58,0.00,,,0.00,779,HR-IXP-WINDi_r2_v1.2,2013-04-26 18:04:00,
2013-04-26 11:09:00,71.2,54.6,30.16,West,275,3.0,5.0,56,0.00,,,0.00,786,HR-IXP-WINDi_r2_v1.2,2013-04-26 18:09:00,
2013-04-26 11:14:00,71.4,53.8,30.17,WNW,296,1.0,5.0,54,0.00,,,0.00,800,HR-IXP-WINDi_r2_v1.2,2013-04-26 18:14:00,
2013-04-26 11:19:00,71.6,55.5,30.17,WSW,258,4.0,7.0,57,0.00,,,0.00,793,HR-IXP-WINDi_r2_v1.2,2013-04-26 18:19:00,
2013-04-26 11:25:00,71.1,56.0,30.17,WSW,246,0.0,7.0,59,0.00,,,0.00,800,HR-IXP-WINDi_r2_v1.2,2013-04-26 18:25:00,
2013-04-26 11:30:00,71.2,56.6,30.16,SW,218,5.0,9.0,60,0.00,,,0.00,814,HR-IXP-WINDi_r2_v1.2,2013-04-26 18:30:00,
2013-04-26 11:35:00,72.2,57.0,30.16,South,188,1.0,9.0,59,0.00,,,0.00,816,HR-IXP-WINDi_r2_v1.2,2013-04-26 18:35:00,
2013-04-26 11:40:00,71.9,56.7,30.16,SW,217,4.0,7.0,59,0.00,,,0.00,819,HR-IXP-WINDi_r2_v1.2,2013-04-26 18:40:00,
2013-04-26 11:45:00,73.7,57.5,30.16,SSW,201,5.0,9.0,57,0.00,,,0.00,833,HR-IXP-WINDi_r2_v1.2,2013-04-26 18:45:00,
2013-04-26 11:50:00,73.3,56.6,30.16,SSW,196,7.0,9.0,56,0.00,,,0.00,840,HR-IXP-WINDi_r2_v1.2,2013-04-26 18:50:00,
2013-04-26 11:55:00,72.4,56.3,30.16,WSW,252,5.0,8.0,57,0.00,,,0.00,849,HR-IXP-WINDi_r2_v1.2,2013-04-26 18:55:00,
2013-04-26 12:00:00,72.2,56.6,30.16,SSE,165,3.0,8.0,58,0.00,,,0.00,854,HR-IXP-WINDi_r2_v1.2,2013-04-26 19:00:00,
2013-04-26 12:06:00,73.1,56.4,30.16,SSW,197,4.0,10.0,56,0.00,,,0.00,858,HR-IXP-WINDi_r2_v1.2,2013-04-26 19:06:00,
2013-04-26 12:11:00,73.5,55.3,30.16,SSW,205,6.0,11.0,53,0.00,,,0.00,861,HR-IXP-WINDi_r2_v1.2,2013-04-26 19:11:00,
2013-04-26 12:16:00,72.9,55.2,30.16,SSW,209,5.0,11.0,54,0.00,,,0.00,865,HR-IXP-WINDi_r2_v1.2,2013-04-26 19:16:00,
2013-04-26 12:21:00,72.8,55.1,30.16,SSW,198,4.0,11.0,54,0.00,,,0.00,867,HR-IXP-WINDi_r2_v1.2,2013-04-26 19:21:00,
2013-04-26 12:27:00,73.0,55.3,30.16,WSW,237,7.0,11.0,54,0.00,,,0.00,872,HR-IXP-WINDi_r2_v1.2,2013-04-26 19:27:00,
2013-04-26 12:32:00,73.0,55.3,30.16,South,180,5.0,9.0,54,0.00,,,0.00,872,HR-IXP-WINDi_r2_v1.2,2013-04-26 19:32:00,
2013-04-26 12:37:00,72.9,55.7,30.16,SSW,209,3.0,9.0,55,0.00,,,0.00,875,HR-IXP-WINDi_r2_v1.2,2013-04-26 19:37:00,
2013-04-26 12:42:00,73.4,55.2,30.16,SW,214,6.0,9.0,53,0.00,,,0.00,875,HR-IXP-WINDi_r2_v1.2,2013-04-26 19:42:00,
2013-04-26 12:48:00,73.3,55.1,30.16,WSW,250,5.0,9.0,53,0.00,,,0.00,872,HR-IXP-WINDi_r2_v1.2,2013-04-26 19:48:00,
2013-04-26 12:53:00,73.0,55.8,30.15,SW,221,8.0,11.0,55,0.00,,,0.00,868,HR-IXP-WINDi_r2_v1.2,2013-04-26 19:53:00,
2013-04-26 12:58:00,72.8,55.6,30.15,South,190,4.0,11.0,55,0.00,,,0.00,868,HR-IXP-WINDi_r2_v1.2,2013-04-26 19:58:00,
2013-04-26 13:03:00,72.8,55.6,30.15,SW,226,5.0,11.0,55,0.00,,,0.00,874,HR-IXP-WINDi_r2_v1.2,2013-04-26 20:03:00,
2013-04-26 13:08:00,73.0,55.8,30.15,West,270,4.0,8.0,55,0.00,,,0.00,874,HR-IXP-WINDi_r2_v1.2,2013-04-26 20:08:00,
2013-04-26 13:14:00,73.9,55.1,30.15,South,177,5.0,9.0,52,0.00,,,0.00,874,HR-IXP-WINDi_r2_v1.2,2013-04-26 20:14:00,
2013-04-26 13:19:00,74.0,55.2,30.15,SSW,209,1.0,9.0,52,0.00,,,0.00,874,HR-IXP-WINDi_r2_v1.2,2013-04-26 20:19:00,
2013-04-26 13:24:00,74.0,54.1,30.15,SSW,210,10.0,11.0,50,0.00,,,0.00,872,HR-IXP-WINDi_r2_v1.2,2013-04-26 20:24:00,
2013-04-26 13:29:00,74.0,54.7,30.15,SSE,159,3.0,11.0,51,0.00,,,0.00,867,HR-IXP-WINDi_r2_v1.2,2013-04-26 20:29:00,
2013-04-26 13:34:00,74.0,54.1,30.15,West,263,4.0,11.0,50,0.00,,,0.00,865,HR-IXP-WINDi_r2_v1.2,2013-04-26 20:34:00,
2013-04-26 13:39:00,74.1,54.2,30.15,SW,215,2.0,11.0,50,0.00,,,0.00,863,HR-IXP-WINDi_r2_v1.2,2013-04-26 20:39:00,
2013-04-26 13:45:00,74.0,54.1,30.14,SSW,207,4.0,11.0,50,0.00,,,0.00,860,HR-IXP-WINDi_r2_v1.2,2013-04-26 20:45:00,
2013-04-26 13:50:00,74.0,54.7,30.14,SW,222,4.0,11.0,51,0.00,,,0.00,856,HR-IXP-WINDi_r2_v1.2,2013-04-26 20:50:00,
2013-04-26 13:55:00,74.8,54.3,30.14,SSW,194,7.0,11.0,49,0.00,,,0.00,853,HR-IXP-WINDi_r2_v1.2,2013-04-26 20:55:00,
2013-04-26 14:01:00,75.1,54.6,30.14,SSW,198,6.0,10.0,49,0.00,,,0.00,847,HR-IXP-WINDi_r2_v1.2,2013-04-26 21:01:00,
2013-04-26 14:06:00,74.7,54.2,30.14,WSW,238,3.0,11.0,49,0.00,,,0.00,838,HR-IXP-WINDi_r2_v1.2,2013-04-26 21:06:00,
2013-04-26 14:11:00,74.8,54.3,30.14,SW,236,4.0,11.0,49,0.00,,,0.00,833,HR-IXP-WINDi_r2_v1.2,2013-04-26 21:11:00,
2013-04-26 14:16:00,74.7,54.2,30.14,West,271,6.0,11.0,49,0.00,,,0.00,828,HR-IXP-WINDi_r2_v1.2,2013-04-26 21:16:00,
2013-04-26 14:22:00,74.5,53.5,30.13,SSW,213,5.0,10.0,48,0.00,,,0.00,821,HR-IXP-WINDi_r2_v1.2,2013-04-26 21:22:00,
2013-04-26 14:27:00,74.3,53.9,30.14,SW,231,7.0,11.0,49,0.00,,,0.00,814,HR-IXP-WINDi_r2_v1.2,2013-04-26 21:27:00,
2013-04-26 14:32:00,74.5,52.9,30.13,SSW,201,9.0,12.0,47,0.00,,,0.00,803,HR-IXP-WINDi_r2_v1.2,2013-04-26 21:32:00,
2013-04-26 14:37:00,73.9,52.4,30.14,SSW,204,6.0,12.0,47,0.00,,,0.00,796,HR-IXP-WINDi_r2_v1.2,2013-04-26 21:37:00,
2013-04-26 14:43:00,73.4,52.5,30.13,WSW,257,5.0,12.0,48,0.00,,,0.00,786,HR-IXP-WINDi_r2_v1.2,2013-04-26 21:43:00,
2013-04-26 14:48:00,72.8,53.0,30.13,SW,236,6.0,14.0,50,0.00,,,0.00,775,HR-IXP-WINDi_r2_v1.2,2013-04-26 21:48:00,
2013-04-26 14:53:00,73.0,53.8,30.13,SSW,197,4.0,14.0,51,0.00,,,0.00,768,HR-IXP-WINDi_r2_v1.2,2013-04-26 21:53:00,
2013-04-26 14:58:00,73.9,53.5,30.13,SSW,207,7.0,13.0,49,0.00,,,0.00,756,HR-IXP-WINDi_r2_v1.2,2013-04-26 21:58:00,
2013-04-26 15:03:00,73.4,52.5,30.13,SW,221,6.0,13.0,48,0.00,,,0.00,747,HR-IXP-WINDi_r2_v1.2,2013-04-26 22:03:00,
2013-04-26 15:08:00,73.8,54.0,30.13,SSW,193,5.0,15.0,50,0.00,,,0.00,737,HR-IXP-WINDi_r2_v1.2,2013-04-26 22:08:00,
2013-04-26 15:14:00,73.6,53.8,30.12,South,177,2.0,15.0,50,0.00,,,0.00,724,HR-IXP-WINDi_r2_v1.2,2013-04-26 22:14:00,
2013-04-26 15:19:00,73.9,53.5,30.12,South,185,8.0,12.0,49,0.00,,,0.00,714,HR-IXP-WINDi_r2_v1.2,2013-04-26 22:19:00,
2013-04-26 15:24:00,73.7,53.3,30.12,SSW,210,7.0,12.0,49,0.00,,,0.00,701,HR-IXP-WINDi_r2_v1.2,2013-04-26 22:24:00,
2013-04-26 15:29:00,73.0,52.7,30.12,SW,225,8.0,13.0,49,0.00,,,0.00,671,HR-IXP-WINDi_r2_v1.2,2013-04-26 22:29:00,
2013-04-26 15:34:00,73.7,53.3,30.12,South,190,5.0,14.0,49,0.00,,,0.00,621,HR-IXP-WINDi_r2_v1.2,2013-04-26 22:34:00,
2013-04-26 15:39:00,73.3,54.0,30.12,SSW,213,7.0,14.0,51,0.00,,,0.00,554,HR-IXP-WINDi_r2_v1.2,2013-04-26 22:39:00,
2013-04-26 15:44:00,73.1,53.3,30.12,SSE,166,3.0,14.0,50,0.00,,,0.00,508,HR-IXP-WINDi_r2_v1.2,2013-04-26 22:44:00,
2013-04-26 15:50:00,72.8,53.6,30.12,SSW,207,7.0,14.0,51,0.00,,,0.00,494,HR-IXP-WINDi_r2_v1.2,2013-04-26 22:50:00,
2013-04-26 15:55:00,72.9,54.2,30.11,SW,220,9.0,13.0,52,0.00,,,0.00,517,HR-IXP-WINDi_r2_v1.2,2013-04-26 22:55:00,
2013-04-26 16:00:00,73.2,54.5,30.11,SSW,209,9.0,12.0,52,0.00,,,0.00,538,HR-IXP-WINDi_r2_v1.2,2013-04-26 23:00:00,
2013-04-26 16:05:00,73.6,54.3,30.11,SW,214,6.0,13.0,51,0.00,,,0.00,563,HR-IXP-WINDi_r2_v1.2,2013-04-26 23:05:00,
2013-04-26 16:10:00,73.8,52.3,30.11,WSW,246,6.0,13.0,47,0.00,,,0.00,573,HR-IXP-WINDi_r2_v1.2,2013-04-26 23:10:00,
2013-04-26 16:15:00,73.6,52.1,30.11,SSW,211,5.0,10.0,47,0.00,,,0.00,568,HR-IXP-WINDi_r2_v1.2,2013-04-26 23:15:00,
2013-04-26 16:20:00,73.8,51.7,30.11,SSW,195,5.0,10.0,46,0.00,,,0.00,554,HR-IXP-WINDi_r2_v1.2,2013-04-26 23:20:00,
2013-04-26 16:25:00,74.4,52.2,30.11,WSW,249,6.0,8.0,46,0.00,,,0.00,540,HR-IXP-WINDi_r2_v1.2,2013-04-26 23:25:00,
2013-04-26 16:30:00,73.7,52.7,30.10,SSW,211,7.0,12.0,48,0.00,,,0.00,524,HR-IXP-WINDi_r2_v1.2,2013-04-26 23:30:00,
2013-04-26 16:35:00,73.7,52.7,30.10,SW,225,6.0,12.0,48,0.00,,,0.00,506,HR-IXP-WINDi_r2_v1.2,2013-04-26 23:35:00,
2013-04-26 16:40:00,74.2,53.8,30.10,South,170,4.0,11.0,49,0.00,,,0.00,490,HR-IXP-WINDi_r2_v1.2,2013-04-26 23:40:00,
2013-04-26 16:46:00,74.0,54.1,30.10,South,190,3.0,12.0,50,0.00,,,0.00,475,HR-IXP-WINDi_r2_v1.2,2013-04-26 23:46:00,
2013-04-26 16:51:00,74.4,55.0,30.10,WSW,257,3.0,12.0,51,0.00,,,0.00,459,HR-IXP-WINDi_r2_v1.2,2013-04-26 23:51:00,
2013-04-26 17:05:00,74.1,53.1,30.10,West,273,7.0,11.0,48,0.00,,,0.00,413,HR-IXP-WINDi_r2_v1.2,2013-04-27 00:05:00,
2013-04-26 17:11:00,73.7,53.3,30.10,WSW,247,4.0,11.0,49,0.00,,,0.00,392,HR-IXP-WINDi_r2_v1.2,2013-04-27 00:11:00,
2013-04-26 17:16:00,74.3,54.4,30.10,West,261,7.0,8.0,50,0.00,,,0.00,302,HR-IXP-WINDi_r2_v1.2,2013-04-27 00:16:00,
2013-04-26 17:21:00,73.6,52.7,30.10,SW,230,3.0,9.0,48,0.00,,,0.00,357,HR-IXP-WINDi_r2_v1.2,2013-04-27 00:21:00,
2013-04-26 17:27:00,73.5,53.7,30.10,West,273,2.0,9.0,50,0.00,,,0.00,341,HR-IXP-WINDi_r2_v1.2,2013-04-27 00:27:00,
2013-04-26 17:32:00,73.4,54.7,30.10,WSW,256,8.0,9.0,52,0.00,,,0.00,323,HR-IXP-WINDi_r2_v1.2,2013-04-27 00:32:00,
2013-04-26 17:37:00,73.3,54.6,30.10,West,267,6.0,10.0,52,0.00,,,0.00,308,HR-IXP-WINDi_r2_v1.2,2013-04-27 00:37:00,
2013-04-26 17:42:00,72.4,54.3,30.10,WNW,285,5.0,10.0,53,0.00,,,0.00,292,HR-IXP-WINDi_r2_v1.2,2013-04-27 00:42:00,
2013-04-26 17:47:00,72.4,54.3,30.10,West,265,3.0,10.0,53,0.00,,,0.00,274,HR-IXP-WINDi_r2_v1.2,2013-04-27 00:47:00,
2013-04-26 17:52:00,71.8,54.2,30.11,West,275,5.0,9.0,54,0.00,,,0.00,257,HR-IXP-WINDi_r2_v1.2,2013-04-27 00:52:00,
2013-04-26 17:57:00,71.7,55.1,30.11,West,281,5.0,9.0,56,0.00,,,0.00,176,HR-IXP-WINDi_r2_v1.2,2013-04-27 00:57:00,
2013-04-26 18:02:00,71.6,55.0,30.10,West,273,3.0,8.0,56,0.00,,,0.00,223,HR-IXP-WINDi_r2_v1.2,2013-04-27 01:02:00,
2013-04-26 18:09:00,71.1,54.6,30.11,WSW,253,4.0,8.0,56,0.00,,,0.00,204,HR-IXP-WINDi_r2_v1.2,2013-04-27 01:09:00,
2013-04-26 18:14:00,70.8,54.3,30.10,WSW,244,6.0,8.0,56,0.00,,,0.00,188,HR-IXP-WINDi_r2_v1.2,2013-04-27 01:14:00,
2013-04-26 18:19:00,70.4,54.9,30.10,WSW,253,2.0,8.0,58,0.00,,,0.00,171,HR-IXP-WINDi_r2_v1.2,2013-04-27 01:19:00,
2013-04-26 18:24:00,70.4,54.9,30.11,West,273,3.0,8.0,58,0.00,,,0.00,155,HR-IXP-WINDi_r2_v1.2,2013-04-27 01:24:00,
2013-04-26 18:29:00,70.5,55.0,30.11,West,261,6.0,7.0,58,0.00,,,0.00,139,HR-IXP-WINDi_r2_v1.2,2013-04-27 01:29:00,
2013-04-26 18:34:00,70.1,54.6,30.11,West,261,4.0,9.0,58,0.00,,,0.00,123,HR-IXP-WINDi_r2_v1.2,2013-04-27 01:34:00,
2013-04-26 18:40:00,69.7,55.1,30.11,West,269,4.0,9.0,60,0.00,,,0.00,107,HR-IXP-WINDi_r2_v1.2,2013-04-27 01:40:00,
2013-04-26 18:45:00,69.2,55.1,30.11,WSW,247,4.0,8.0,61,0.00,,,0.00,90,HR-IXP-WINDi_r2_v1.2,2013-04-27 01:45:00,
2013-04-26 18:50:00,68.8,54.7,30.11,West,259,4.0,8.0,61,0.00,,,0.00,72,HR-IXP-WINDi_r2_v1.2,2013-04-27 01:50:00,
2013-04-26 18:55:00,68.5,54.9,30.11,West,271,5.0,7.0,62,0.00,,,0.00,56,HR-IXP-WINDi_r2_v1.2,2013-04-27 01:55:00,
2013-04-26 19:00:00,67.9,54.8,30.11,West,280,6.0,7.0,63,0.00,,,0.00,47,HR-IXP-WINDi_r2_v1.2,2013-04-27 02:00:00,
2013-04-26 19:06:00,67.5,54.4,30.11,West,259,3.0,8.0,63,0.00,,,0.00,37,HR-IXP-WINDi_r2_v1.2,2013-04-27 02:06:00,
2013-04-26 19:11:00,67.2,54.6,30.11,West,263,7.0,8.0,64,0.00,,,0.00,26,HR-IXP-WINDi_r2_v1.2,2013-04-27 02:11:00,
2013-04-26 19:16:00,66.8,54.6,30.11,West,274,3.0,7.0,65,0.00,,,0.00,19,HR-IXP-WINDi_r2_v1.2,2013-04-27 02:16:00,
2013-04-26 19:21:00,66.6,54.8,30.12,WNW,286,4.0,7.0,66,0.00,,,0.00,12,HR-IXP-WINDi_r2_v1.2,2013-04-27 02:21:00,
2013-04-26 19:26:00,66.3,55.0,30.12,West,272,2.0,7.0,67,0.00,,,0.00,7,HR-IXP-WINDi_r2_v1.2,2013-04-27 02:26:00,
2013-04-26 19:31:00,66.0,55.1,30.12,West,278,1.0,7.0,68,0.00,,,0.00,0,HR-IXP-WINDi_r2_v1.2,2013-04-27 02:31:00,
2013-04-26 19:37:00,65.9,55.0,30.12,West,261,3.0,5.0,68,0.00,,,0.00,0,HR-IXP-WINDi_r2_v1.2,2013-04-27 02:37:00,
2013-04-26 19:42:00,65.6,55.1,30.12,WNW,284,5.0,5.0,69,0.00,,,0.00,0,HR-IXP-WINDi_r2_v1.2,2013-04-27 02:42:00,
2013-04-26 19:47:00,65.3,55.2,30.12,WNW,284,3.0,5.0,70,0.00,,,0.00,0,HR-IXP-WINDi_r2_v1.2,2013-04-27 02:47:00,
2013-04-26 19:52:00,65.0,54.5,30.12,NW,325,2.0,5.0,69,0.00,,,0.00,0,HR-IXP-WINDi_r2_v1.2,2013-04-27 02:52:00,
2013-04-26 19:57:00,64.8,54.3,30.12,West,267,1.0,5.0,69,0.00,,,0.00,0,HR-IXP-WINDi_r2_v1.2,2013-04-27 02:57:00,
2013-04-26 20:02:00,64.6,54.1,30.12,WNW,294,3.0,5.0,69,0.00,,,0.00,0,HR-IXP-WINDi_r2_v1.2,2013-04-27 03:02:00,
2013-04-26 20:08:00,64.4,53.9,30.12,West,271,3.0,5.0,69,0.00,,,0.00,0,HR-IXP-WINDi_r2_v1.2,2013-04-27 03:08:00,
2013-04-26 20:13:00,64.1,53.7,30.12,West,277,2.0,6.0,69,0.00,,,0.00,0,HR-IXP-WINDi_r2_v1.2,2013-04-27 03:13:00,
2013-04-26 20:18:00,63.9,53.9,30.12,West,273,2.0,7.0,70,0.00,,,0.00,0,HR-IXP-WINDi_r2_v1.2,2013-04-27 03:18:00,
2013-04-26 20:23:00,63.8,54.2,30.13,West,279,2.0,7.0,71,0.00,,,0.00,0,HR-IXP-WINDi_r2_v1.2,2013-04-27 03:23:00,
2013-04-26 20:28:00,63.7,54.1,30.13,West,272,4.0,6.0,71,0.00,,,0.00,0,HR-IXP-WINDi_r2_v1.2,2013-04-27 03:28:00,
2013-04-26 20:34:00,63.5,54.3,30.13,West,272,3.0,6.0,72,0.00,,,0.00,0,HR-IXP-WINDi_r2_v1.2,2013-04-27 03:34:00,
2013-04-26 20:39:00,63.3,54.4,30.13,West,278,0.0,5.0,73,0.00,,,0.00,0,HR-IXP-WINDi_r2_v1.2,2013-04-27 03:39:00,
2013-04-26 20:44:00,63.2,54.3,30.14,WNW,284,3.0,5.0,73,0.00,,,0.00,0,HR-IXP-WINDi_r2_v1.2,2013-04-27 03:44:00,
2013-04-26 20:49:00,63.1,54.2,30.13,West,271,3.0,4.0,73,0.00,,,0.00,0,HR-IXP-WINDi_r2_v1.2,2013-04-27 03:49:00,
2013-04-26 20:55:00,63.0,54.1,30.13,West,268,2.0,4.0,73,0.00,,,0.00,0,HR-IXP-WINDi_r2_v1.2,2013-04-27 03:55:00,
2013-04-26 21:00:00,62.9,54.1,30.14,West,268,4.0,4.0,73,0.00,,,0.00,0,HR-IXP-WINDi_r2_v1.2,2013-04-27 04:00:00,
2013-04-26 21:01:00,62.9,54.1,30.14,West,275,1.0,4.0,73,0.00,,,0.00,0,HR-IXP-WINDi_r2_v1.2,2013-04-27 04:01:00,
2013-04-26 21:06:00,62.8,54.0,30.14,West,264,1.0,4.0,73,0.00,,,0.00,0,HR-IXP-WINDi_r2_v1.2,2013-04-27 04:06:00,
2013-04-26 21:11:00,62.7,53.9,30.14,West,271,2.0,4.0,73,0.00,,,0.00,0,HR-IXP-WINDi_r2_v1.2,2013-04-27 04:11:00,
2013-04-26 21:16:00,62.6,54.1,30.15,West,272,1.0,4.0,74,0.00,,,0.00,0,HR-IXP-WINDi_r2_v1.2,2013-04-27 04:16:00,
2013-04-26 21:21:00,62.5,54.4,30.15,West,271,2.0,4.0,75,0.00,,,0.00,0,HR-IXP-WINDi_r2_v1.2,2013-04-27 04:21:00,
2013-04-26 21:27:00,62.4,54.3,30.15,West,270,3.0,4.0,75,0.00,,,0.00,0,HR-IXP-WINDi_r2_v1.2,2013-04-27 04:27:00,
2013-04-26 21:32:00,62.2,54.1,30.15,West,265,3.0,4.0,75,0.00,,,0.00,0,HR-IXP-WINDi_r2_v1.2,2013-04-27 04:32:00,
2013-04-26 21:37:00,62.2,54.5,30.16,West,265,2.0,4.0,76,0.00,,,0.00,0,HR-IXP-WINDi_r2_v1.2,2013-04-27 04:37:00,
2013-04-26 21:42:00,62.0,54.3,30.15,West,265,1.0,4.0,76,0.00,,,0.00,0,HR-IXP-WINDi_r2_v1.2,2013-04-27 04:42:00,
2013-04-26 21:47:00,62.0,54.3,30.16,West,265,0.0,4.0,76,0.00,,,0.00,0,HR-IXP-WINDi_r2_v1.2,2013-04-27 04:47:00,
2013-04-26 21:52:00,61.9,54.5,30.16,West,265,1.0,3.0,77,0.00,,,0.00,0,HR-IXP-WINDi_r2_v1.2,2013-04-27 04:52:00,
2013-04-26 21:57:00,61.8,54.5,30.16,West,265,1.0,3.0,77,0.00,,,0.00,0,HR-IXP-WINDi_r2_v1.2,2013-04-27 04:57:00,
2013-04-26 22:03:00,61.8,54.8,30.16,West,265,0.0,3.0,78,0.00,,,0.00,0,HR-IXP-WINDi_r2_v1.2,2013-04-27 05:03:00,
2013-04-26 22:08:00,61.7,54.7,30.16,West,265,0.0,2.0,78,0.00,,,0.00,0,HR-IXP-WINDi_r2_v1.2,2013-04-27 05:08:00,
2013-04-26 22:14:00,61.6,54.6,30.16,West,265,0.0,2.0,78,0.00,,,0.00,0,HR-IXP-WINDi_r2_v1.2,2013-04-27 05:14:00,
2013-04-26 22:19:00,61.5,54.5,30.16,West,265,1.0,2.0,78,0.00,,,0.00,0,HR-IXP-WINDi_r2_v1.2,2013-04-27 05:19:00,
2013-04-26 22:24:00,61.5,54.9,30.16,West,265,0.0,3.0,79,0.00,,,0.00,0,HR-IXP-WINDi_r2_v1.2,2013-04-27 05:24:00,
2013-04-26 22:29:00,61.4,54.8,30.16,West,265,2.0,3.0,79,0.00,,,0.00,0,HR-IXP-WINDi_r2_v1.2,2013-04-27 05:29:00,
2013-04-26 22:34:00,61.3,55.0,30.16,West,265,0.0,2.0,80,0.00,,,0.00,0,HR-IXP-WINDi_r2_v1.2,2013-04-27 05:34:00,
2013-04-26 22:40:00,61.3,55.0,30.16,West,265,0.0,2.0,80,0.00,,,0.00,0,HR-IXP-WINDi_r2_v1.2,2013-04-27 05:40:00,
2013-04-26 22:45:00,61.1,54.8,30.16,West,265,0.0,2.0,80,0.00,,,0.00,0,HR-IXP-WINDi_r2_v1.2,2013-04-27 05:45:00,
2013-04-26 22:50:00,61.0,54.7,30.16,West,265,1.0,2.0,80,0.00,,,0.00,0,HR-IXP-WINDi_r2_v1.2,2013-04-27 05:50:00,
2013-04-26 22:56:00,60.9,55.0,30.16,West,265,1.0,2.0,81,0.00,,,0.00,0,HR-IXP-WINDi_r2_v1.2,2013-04-27 05:56:00,
2013-04-26 23:01:00,60.9,55.0,30.17,West,265,0.0,2.0,81,0.00,,,0.00,0,HR-IXP-WINDi_r2_v1.2,2013-04-27 06:01:00,
2013-04-26 23:06:00,60.8,55.2,30.17,West,265,1.0,2.0,82,0.00,,,0.00,0,HR-IXP-WINDi_r2_v1.2,2013-04-27 06:06:00,
2013-04-26 23:11:00,60.7,55.1,30.17,West,265,0.0,2.0,82,0.00,,,0.00,0,HR-IXP-WINDi_r2_v1.2,2013-04-27 06:11:00,
2013-04-26 23:16:00,60.7,55.1,30.17,West,265,0.0,2.0,82,0.00,,,0.00,0,HR-IXP-WINDi_r2_v1.2,2013-04-27 06:16:00,
2013-04-26 23:22:00,60.6,55.0,30.17,West,265,0.0,1.0,82,0.00,,,0.00,0,HR-IXP-WINDi_r2_v1.2,2013-04-27 06:22:00,
2013-04-26 23:27:00,60.5,54.9,30.17,West,265,1.0,2.0,82,0.00,,,0.00,0,HR-IXP-WINDi_r2_v1.2,2013-04-27 06:27:00,
2013-04-26 23:32:00,60.5,55.2,30.17,West,265,0.0,2.0,83,0.00,,,0.00,0,HR-IXP-WINDi_r2_v1.2,2013-04-27 06:32:00,
2013-04-26 23:37:00,60.4,55.1,30.17,West,265,0.0,1.0,83,0.00,,,0.00,0,HR-IXP-WINDi_r2_v1.2,2013-04-27 06:37:00,
2013-04-26 23:42:00,60.4,55.1,30.17,West,265,0.0,1.0,83,0.00,,,0.00,0,HR-IXP-WINDi_r2_v1.2,2013-04-27 06:42:00,
2013-04-26 23:47:00,60.3,55.1,30.17,West,265,0.0,1.0,83,0.00,,,0.00,0,HR-IXP-WINDi_r2_v1.2,2013-04-27 06:47:00,
2013-04-26 23:52:00,60.3,55.1,30.17,West,265,0.0,1.0,83,0.00,,,0.00,0,HR-IXP-WINDi_r2_v1.2,2013-04-27 06:52:00,
2013-04-26 23:57:00,60.2,55.0,30.17,West,265,0.0,1.0,83,0.00,,,0.00,0,HR-IXP-WINDi_r2_v1.2,2013-04-27 06:57:00,